Regional Weather Roundup
Issued by NWS

Home | Current Version | Previous Version | Text Only | Print | Product List | Glossary Off
Versions: 1 2 3 4 5 6 7 8 9 10 11 12 13 14 15 16 17 18 19 20 21 22 23 24 25 26 27 28 29 30 31 32 33 34 35 36 37 38 39 40 41 42 43 44 45 46 47 48 49 50

000
ASUS43 KDMX 292301
RWRIA

WEATHER ROUNDUP FOR IOWA
NATIONAL WEATHER SERVICE DES MOINES IA
600 PM CDT WED MAR 29 2017

NOTE: "FAIR" INDICATES FEW OR NO CLOUDS BELOW 12,000 FEET WITH NO
SIGNIFICANT WEATHER AND/OR OBSTRUCTIONS TO VISIBILITY.

* - THESE STATIONS ARE NOT NWS STATIONS...THUS NOT UNDER NWS
QUALITY CONTROL.  THEY ALSO DO NOT REPORT WEATHER SUCH
AS PRECIPITATION OR FOG.

IAZ001>003-012>014-020>022-031>034-043>046-300000-
   NORTHWEST IOWA

CITY           SKY/WX    TMP DP  RH WIND       PRES   REMARKS
CARROLL *      MIX PCPN  41  41 100 NE22G30   29.94F VSB 1
CHEROKEE *     LGT RAIN  39  38  97 E21G29    30.00R WCI  29
DENISON *      LGT RAIN  41  39  93 NE25G39   29.93F
LE MARS *      CLOUDY    41  37  87 MISG      29.99S
ORANGE CITY *  LGT RAIN  39  37  93 E18G28    29.99R WCI  30
SHELDON *      MIX PCPN  39  37  93 E23G38    29.99S WCI  29
SIOUX CITY     LGT RAIN  42  40  92 E25G33    29.96R
SPENCER        LGT RAIN  40  37  89 E29G38    30.02F WCI  29
STORM LAKE *   CLOUDY    39  37  93 E26G35    29.98R WCI  28
$$

IAZ055>058-069>071-079>083-090>094-300000-
   SOUTHWEST IOWA

CITY           SKY/WX    TMP DP  RH WIND       PRES   REMARKS
ATLANTIC *     LGT RAIN  43  43 100 NE18      29.84F
AUDUBON *      LGT RAIN  41  37  87 NE20G26   29.89F
CLARINDA *     CLOUDY    46  46 100 NE13      29.80S FOG
COUNCIL BLFS * MIX PCPN  43  43 100 NE25      29.83F
CRESTON *      CLOUDY    45  45 100 E17G24    29.81F FOG
HARLAN  *      LGT RAIN  41  41 100 NE23G35   29.89F
LAMONI         CLOUDY    49  48  97 E14G22    29.79F FOG
RED OAK *      MIX PCPN  45  45 100 NE16      29.81S
SHENANDOAH *   LGT RAIN  46  45  93 NE20      29.77F VSB 1
$$

IAZ047>049-059>061-072>074-084-300000-
   CENTRAL IOWA

CITY           SKY/WX    TMP DP  RH WIND       PRES   REMARKS
AMES           LGT RAIN  42  42 100 E16G30    29.93S FOG
BOONE *        CLOUDY    41  41 100 E29G40    29.92R FOG
CHARITON *     FOG       46  46 100 E13G20    29.85F VSB 1
DES MOINES     LGT RAIN  45  43  93 E13G24    29.89S FOG
GRINNELL*      RAIN      42  40  93 E22G32    29.94R
MARSHALLTOWN   LGT RAIN  42  40  92 E24G35    29.94R FOG
NEWTON *       CLOUDY    43  41  93 E24G31    29.92R FOG
PELLA *        HVY RAIN  45  43  95 E13G20    29.92R
PERRY *        LGT RAIN  42  40  94 E18G28    29.91F
$$

IAZ004>006-015-016-023>025-035-036-300000-
   NORTH CENTRAL IOWA

CITY           SKY/WX    TMP DP  RH WIND       PRES   REMARKS
ALGONA *       LGT RAIN  41  41 100 E25G32    30.03F
CLARION *      CLOUDY    39  39 100 E30G40    29.99R FOG     WCI  27
ESTHERVILLE    RAIN      39  38  96 E22G32    30.05F FOG     WCI  29
FORT DODGE *   CLOUDY    39  36  87 NE24G33   30.00R WCI  28
MASON CITY     LGT RAIN  39  36  89 E26G38    30.07F FOG     WCI  28
FOREST CITY *  LGT RAIN  39  37  93 E16G25    30.06F WCI  30
WEBSTER CITY * LGT RAIN  41  39  93 E32G40    29.93S
IOWA FALLS *   RAIN      41  39  93 NE23G33   29.99R
$$

IAZ007>011-017>019-026>030-037>042-050>054-066-300000-
   NORTHEAST IOWA

CITY           SKY/WX    TMP DP  RH WIND       PRES   REMARKS
CEDAR RAPIDS   LGT RAIN  43  41  93 E24G37    29.94F FOG
CHARLES CITY * LGT RAIN  39  39 100 E22G35    30.08R WCI  29
CLINTON *      RAIN      44  41  89 E21       30.01S
DECORAH *      LGT RAIN  41  39  93 E14G24    30.09F
DUBUQUE        LGT RAIN  42  37  82 NE14G24   30.06R
MONTICELLO *   LGT RAIN  43  39  87 NE18      30.00F
OELWEIN *      CLOUDY    41  39  93 NE23G32   30.01S
WATERLOO       LGT RAIN  42  38  85 NE21G31   30.02R FOG
$$

IAZ064-065-067-068-078-300000-
   EAST CENTRAL IOWA

CITY           SKY/WX    TMP DP  RH WIND       PRES   REMARKS
DAVENPORT      RAIN      44  41  89 E21       29.99F FOG
IOWA CITY      LGT RAIN  46  41  82 E18G29    29.97R
MUSCATINE *    CLOUDY    46  43  87 E15       29.95F
QUAD CITIES    LGT RAIN  46  41  82 NE18      29.96F
$$

IAZ062-063-075>077-085>089-095>099-300000-
   SOUTHEAST IOWA

CITY           SKY/WX    TMP DP  RH WIND       PRES   REMARKS
BURLINGTON     CLOUDY    50  46  86 E10       29.92R
FAIRFIELD *    CLOUDY    46  45  93 E21       29.90R
FORT MADISON * CLOUDY    50  48  93 E12       29.92R
KEOKUK *       CLOUDY    50  48  93 E18G25    29.88S
OSKALOOSA *    CLOUDY    46  43  92 E20G30    29.90R
CENTERVILLE *  CLOUDY    46  46 100 E15G23    29.85F
OTTUMWA        CLOUDY    47  46  97 E21G30    29.89R
WASHINGTON *   CLOUDY    46  45  93 E18G25    29.94R
$$

ABBREVIATIONS USED IN REMARKS
   TC - TEMPERATURES IN CELSIUS
  WCI - WIND CHILL INDEX
   HX - HEAT INDEX
  VSB - VISIBILITY
$$




USA.gov is the U.S. government's official web portal to all federal, state and local government web resources and services.